Location: *
(51.2167°N, 10.0667°E)
Time: 11:59:35
(UTC+00:00)

Cosmos 1980 - Pass Details

Date: 12 December 2019
Orbit: 838 x 848 km, 71.0° (Epoch: 19 January)

Event Time Altitude Azimuth Distance (km) Brightness Sun altitude
Rises 15:50:37 0° 183° (S) 3,378 7.3 -5.9°
Reaches altitude 10° 15:53:11 10° 175° (S) 2,449 6.5 -6.2°
Maximum altitude 15:58:21 39° 108° (ESE) 1,235 4.3 -6.9°
Drops below altitude 10° 16:03:34 10° 41° (NE) 2,470 5.5 -7.6°
Enters shadow 16:04:21 - 39° (NE) 2,748 5.8 -7.7°
